Hourly Weather Goroka

Today, 21 October, Wednesday

Time Temperature Precipitation Wind Pressure Humidity
00:00 +17°C° 3.2 mm 0 mps 623 mmHg 98%
01:00 +16°C° 3.2 mm 0 mps 623 mmHg 98%
02:00 +16°C° 2.5 mm 0 mps 623 mmHg 98%
03:00 +16°C° 2.5 mm 0 mps 622 mmHg 98%
04:00 +16°C° 0 mm 0 mps 622 mmHg 97%
05:00 +16°C° 0.3 mm 0 mps 623 mmHg 97%
06:00 +16°C° 0.3 mm 0 mps 623 mmHg 96%
07:00 +16°C° 0.3 mm 0 mps 623 mmHg 96%
08:00 +18°C° 0.2 mm 0 mps 624 mmHg 89%
09:00 +20°C° 0.2 mm 0 mps 625 mmHg 82%
10:00 +22°C° 0.2 mm 0 mps 626 mmHg 75%
11:00 +22°C° 1.6 mm 0 mps 625 mmHg 77%
12:00 +22°C° 1.6 mm 0 mps 624 mmHg 79%
13:00 +24°C° 1.6 mm 1 mps 623 mmHg 80%
14:00 +24°C° 2.5 mm 1 mps 623 mmHg 83%
15:00 +23°C° 2.5 mm 1 mps 623 mmHg 86%
16:00 +23°C° 2.5 mm 1 mps 622 mmHg 89%
17:00 +19°C° 2.5 mm 0 mps 622 mmHg 91%
18:00 +18°C° 2.5 mm 0 mps 623 mmHg 94%
19:00 +17°C° 2.5 mm 0 mps 623 mmHg 96%
20:00 +17°C° 5 mm 0 mps 623 mmHg 97%
21:00 +17°C° 5 mm 0 mps 624 mmHg 97%
22:00 +17°C° 5 mm 0 mps 624 mmHg 98%
23:00 +16°C° 2.2 mm 0 mps 623 mmHg 98%

Tomorrow, 22 October, Thursday

Time Temperature Precipitation Wind Pressure Humidity
00:00 +16°C° 2.2 mm 0 mps 623 mmHg 98%
01:00 +16°C° 2.2 mm 0 mps 623 mmHg 98%
02:00 +16°C° 0.4 mm 0 mps 622 mmHg 98%
03:00 +16°C° 0.4 mm 0 mps 622 mmHg 98%
04:00 +16°C° 0.4 mm 0 mps 622 mmHg 97%
05:00 +16°C° 0.1 mm 0 mps 622 mmHg 97%
06:00 +16°C° 0.1 mm 0 mps 623 mmHg 96%
07:00 +16°C° 0.1 mm 0 mps 623 mmHg 95%
08:00 +18°C° 0.5 mm 0 mps 624 mmHg 89%
09:00 +20°C° 0.5 mm 0 mps 625 mmHg 82%
10:00 +24°C° 0.5 mm 1 mps 625 mmHg 75%
11:00 +24°C° 1.5 mm 1 mps 625 mmHg 77%
12:00 +24°C° 1.5 mm 1 mps 624 mmHg 80%
13:00 +24°C° 1.5 mm 1 mps 623 mmHg 82%
14:00 +23°C° 1.9 mm 1 mps 623 mmHg 85%
15:00 +22°C° 1.9 mm 1 mps 623 mmHg 88%
16:00 +22°C° 1.9 mm 1 mps 622 mmHg 91%
17:00 +21°C° 4.7 mm 1 mps 623 mmHg 93%
18:00 +20°C° 4.7 mm 1 mps 623 mmHg 96%
19:00 +16°C° 4.7 mm 0 mps 623 mmHg 98%
20:00 +16°C° 2.2 mm 0 mps 623 mmHg 98%
21:00 +16°C° 2.2 mm 0 mps 624 mmHg 98%
22:00 +16°C° 2.2 mm 0 mps 624 mmHg 98%
23:00 +16°C° 0.1 mm 0 mps 624 mmHg 97%

Day after tomorrow, 23 October, Friday

Time Temperature Precipitation Wind Pressure Humidity
00:00 +16°C° 0.1 mm 0 mps 623 mmHg 97%
01:00 +15°C° 0.1 mm 0 mps 623 mmHg 97%
02:00 +15°C° 0 mm 0 mps 622 mmHg 97%
03:00 +15°C° 0 mm 0 mps 622 mmHg 96%
04:00 +15°C° 0 mm 0 mps 622 mmHg 96%
05:00 +15°C° 0 mm 0 mps 623 mmHg 96%
06:00 +16°C° 0 mm 0 mps 623 mmHg 95%
07:00 +16°C° 0 mm 0 mps 624 mmHg 94%
08:00 +18°C° 0.2 mm 0 mps 624 mmHg 89%
09:00 +22°C° 0.2 mm 1 mps 625 mmHg 83%
10:00 +23°C° 0.2 mm 1 mps 626 mmHg 78%
11:00 +22°C° 1.2 mm 1 mps 625 mmHg 83%
12:00 +21°C° 1.2 mm 1 mps 624 mmHg 88%
13:00 +20°C° 1.2 mm 1 mps 623 mmHg 93%
14:00 +20°C° 1.2 mm 1 mps 623 mmHg 94%
15:00 +20°C° 1.2 mm 1 mps 622 mmHg 94%
16:00 +20°C° 1.2 mm 1 mps 622 mmHg 94%
17:00 +19°C° 1 mm 1 mps 622 mmHg 95%
18:00 +18°C° 1 mm 1 mps 623 mmHg 96%
19:00 +18°C° 1 mm 1 mps 623 mmHg 97%
20:00 +16°C° 0.6 mm 0 mps 623 mmHg 97%
21:00 +16°C° 0.6 mm 0 mps 624 mmHg 97%
22:00 +16°C° 0.6 mm 0 mps 624 mmHg 97%
23:00 +16°C° 0.9 mm 0 mps 624 mmHg 97%

24 October, Saturday

Time Temperature Precipitation Wind Pressure Humidity
00:00 +15°C° 0.9 mm 0 mps 624 mmHg 98%
01:00 +15°C° 0.9 mm 0 mps 623 mmHg 98%
02:00 +15°C° 2 mm 0 mps 623 mmHg 98%
03:00 +16°C° 2 mm 1 mps 623 mmHg 98%
04:00 +16°C° 2 mm 1 mps 623 mmHg 98%
05:00 +16°C° 0.6 mm 1 mps 623 mmHg 98%
06:00 +16°C° 0.6 mm 1 mps 624 mmHg 97%
07:00 +16°C° 0.6 mm 1 mps 624 mmHg 97%
08:00 +16°C° 0.2 mm 0 mps 624 mmHg 94%
09:00 +17°C° 0.2 mm 0 mps 625 mmHg 92%
10:00 +18°C° 0.2 mm 0 mps 625 mmHg 89%
11:00 +19°C° 0.5 mm 0 mps 625 mmHg 84%
12:00 +21°C° 0.5 mm 0 mps 625 mmHg 78%
13:00 +22°C° 0.5 mm 0 mps 625 mmHg 73%
14:00 +21°C° 1.4 mm 0 mps 624 mmHg 79%
15:00 +19°C° 1.4 mm 0 mps 623 mmHg 86%
16:00 +19°C° 1.4 mm 1 mps 622 mmHg 93%
17:00 +19°C° 0.4 mm 1 mps 622 mmHg 93%
18:00 +16°C° 0.4 mm 0 mps 622 mmHg 94%
19:00 +15°C° 0.4 mm 0 mps 623 mmHg 95%
20:00 +15°C° 0 mm 0 mps 623 mmHg 94%
21:00 +15°C° 0 mm 0 mps 623 mmHg 94%
22:00 +15°C° 0 mm 0 mps 623 mmHg 94%
23:00 +14°C° 0 mm 0 mps 623 mmHg 93%

25 October, Sunday

Time Temperature Precipitation Wind Pressure Humidity
00:00 +14°C° 0 mm 0 mps 623 mmHg 93%
01:00 +14°C° 0 mm 0 mps 622 mmHg 92%
02:00 +14°C° 0 mm 0 mps 622 mmHg 92%
03:00 +14°C° 0 mm 0 mps 622 mmHg 92%
04:00 +14°C° 0 mm 0 mps 622 mmHg 92%
05:00 +14°C° 0 mm 0 mps 622 mmHg 91%
06:00 +15°C° 0 mm 0 mps 623 mmHg 89%
07:00 +16°C° 0 mm 0 mps 624 mmHg 88%
08:00 +18°C° 0.1 mm 0 mps 625 mmHg 78%
09:00 +21°C° 0.1 mm 0 mps 626 mmHg 68%
10:00 +24°C° 0.1 mm 0 mps 626 mmHg 58%
11:00 +27°C° 0.5 mm 1 mps 626 mmHg 57%
12:00 +27°C° 0.5 mm 1 mps 626 mmHg 57%
13:00 +27°C° 0.5 mm 1 mps 625 mmHg 56%
14:00 +26°C° 1.4 mm 1 mps 624 mmHg 67%
15:00 +24°C° 1.4 mm 1 mps 623 mmHg 77%
16:00 +21°C° 1.4 mm 0 mps 623 mmHg 88%
17:00 +20°C° 1.5 mm 0 mps 623 mmHg 90%
18:00 +18°C° 1.5 mm 0 mps 623 mmHg 92%
19:00 +17°C° 1.5 mm 0 mps 623 mmHg 95%
20:00 +17°C° 0.3 mm 0 mps 623 mmHg 95%
21:00 +17°C° 0.3 mm 0 mps 623 mmHg 96%
22:00 +16°C° 0.3 mm 0 mps 624 mmHg 97%
23:00 +16°C° 0.1 mm 0 mps 623 mmHg 97%

26 October, Monday

Time Temperature Precipitation Wind Pressure Humidity
00:00 +16°C° 0.1 mm 0 mps 623 mmHg 97%
01:00 +16°C° 0.1 mm 0 mps 623 mmHg 97%
02:00 +16°C° 0.2 mm 0 mps 622 mmHg 97%
03:00 +15°C° 0.2 mm 0 mps 622 mmHg 97%
04:00 +15°C° 0.2 mm 0 mps 622 mmHg 97%
05:00 +15°C° 0.1 mm 0 mps 622 mmHg 96%
06:00 +16°C° 0.1 mm 0 mps 623 mmHg 96%
07:00 +16°C° 0.1 mm 0 mps 623 mmHg 95%
08:00 +18°C° 0.4 mm 0 mps 624 mmHg 88%
09:00 +22°C° 0.4 mm 1 mps 625 mmHg 81%
10:00 +24°C° 0.4 mm 1 mps 625 mmHg 74%
11:00 +24°C° 1.6 mm 1 mps 625 mmHg 77%
12:00 +24°C° 1.6 mm 1 mps 624 mmHg 81%
13:00 +23°C° 1.6 mm 1 mps 623 mmHg 85%
14:00 +22°C° 2.1 mm 1 mps 623 mmHg 88%
15:00 +19°C° 2.1 mm 0 mps 622 mmHg 91%
16:00 +19°C° 2.1 mm 0 mps 622 mmHg 94%
17:00 +18°C° 1.9 mm 0 mps 622 mmHg 95%
18:00 +17°C° 1.9 mm 0 mps 623 mmHg 96%
19:00 +17°C° 1.9 mm 0 mps 623 mmHg 97%
20:00 +16°C° 1.6 mm 0 mps 623 mmHg 97%
21:00 +16°C° 1.6 mm 0 mps 624 mmHg 96%
22:00 +16°C° 1.6 mm 0 mps 624 mmHg 96%
23:00 +16°C° 0.4 mm 0 mps 623 mmHg 96%

27 October, Tuesday

Time Temperature Precipitation Wind Pressure Humidity
00:00 +16°C° 0.4 mm 0 mps 623 mmHg 96%
01:00 +15°C° 0.4 mm 0 mps 622 mmHg 96%
02:00 +15°C° 0 mm 0 mps 622 mmHg 96%
03:00 +15°C° 0 mm 0 mps 622 mmHg 96%
04:00 +15°C° 0 mm 0 mps 622 mmHg 95%
05:00 +15°C° 0 mm 0 mps 622 mmHg 94%
06:00 +16°C° 0 mm 0 mps 623 mmHg 93%
07:00 +16°C° 0 mm 0 mps 623 mmHg 93%
08:00 +19°C° 0.1 mm 0 mps 624 mmHg 83%
09:00 +23°C° 0.1 mm 1 mps 625 mmHg 74%
10:00 +25°C° 0.1 mm 1 mps 626 mmHg 65%
11:00 +25°C° 1.1 mm 1 mps 625 mmHg 71%
12:00 +24°C° 1.1 mm 1 mps 624 mmHg 77%
13:00 +23°C° 1.1 mm 1 mps 623 mmHg 82%
14:00 +23°C° 1.5 mm 1 mps 623 mmHg 85%
15:00 +22°C° 1.5 mm 1 mps 622 mmHg 88%
16:00 +22°C° 1.5 mm 1 mps 622 mmHg 90%
17:00 +21°C° 1.4 mm 1 mps 622 mmHg 93%
18:00 +20°C° 1.4 mm 1 mps 623 mmHg 95%
19:00 +19°C° 1.4 mm 1 mps 623 mmHg 98%
20:00 +19°C° 1 mm 1 mps 623 mmHg 98%
21:00 +18°C° 1 mm 1 mps 624 mmHg 98%
22:00 +16°C° 1 mm 0 mps 624 mmHg 98%
23:00 +16°C° 1.1 mm 0 mps 623 mmHg 98%
Show more